Wind_Speed
25 24 22 23 23 24 25 24 24 22 21 20 20 20 20 20 20 20 20 20 21 21 22 22 22 23 23 23 23 24 25 26 28 29 30 31 32 34 35 35 36 36 36 36 37 38 39 40 40 41 41 42 43 43 44 44 45 46 47 46 45 44 45 45 46 46 46 46 46 45 45 45 46 48 50 52 54 55 56 57 58 59 59 59 57
25 25 23 23 23 23 23 23 22 22 21 21 21 20 20 20 20 21 21 22 23 23 23 23 23 22 22 23 24 26 27 29 30 31 31 33 34 35 36 37 37 36 36 37 37 38 39 40 41 41 42 43 43 44 45 46 47 47 47 46 45 45 45 46 46 46 46 45 45 44 44 45 46 48 50 52 53 55 55 57 58 58 56 54 52
25 25 24 23 23 23 22 21 21 22 22 22 22 21 20 21 21 22 23 24 25 25 24 24 23 23 24 24 26 27 29 30 31 32 33 35 36 36 37 37 37 36 37 37 38 38 39 40 41 41 42 43 44 46 47 47 48 48 47 46 45 45 46 46 46 45 45 44 44 44 44 45 46 47 49 51 53 54 55 56 57 56 53 50 47
26 24 23 23 23 23 22 22 22 22 23 23 23 22 22 22 23 23 24 26 26 26 25 25 24 25 25 26 28 29 31 32 32 33 35 36 37 37 38 37 37 36 37 37 38 39 40 40 41 42 43 44 45 47 48 48 49 48 46 45 45 45 45 45 45 44 44 43 43 44 45 45 45 47 49 51 52 54 55 56 56 55 51 47 44
26 24 23 23 23 23 23 23 23 23 24 24 24 24 23 24 24 25 26 27 28 28 27 26 26 27 27 28 30 31 32 32 33 34 35 36 37 38 38 37 36 36 37 37 38 39 40 40 41 42 44 45 46 47 48 49 48 47 45 44 44 44 44 43 43 43 42 42 43 44 44 44 44 46 48 50 52 53 54 55 56 54 49 46 45
26 24 23 22 22 23 24 24 24 24 25 25 25 25 25 25 26 27 28 29 29 29 28 28 28 29 29 31 32 32 32 33 34 35 35 36 37 38 37 36 36 37 37 38 39 39 40 40 41 43 44 45 47 48 49 49 47 45 44 43 43 43 42 42 41 41 42 42 43 43 43 43 43 45 48 50 51 52 53 54 55 54 50 47 46
25 24 23 22 22 22 23 24 24 25 25 26 26 26 26 26 27 28 29 30 30 30 30 31 31 31 32 33 33 32 33 33 34 35 36 37 37 36 36 36 36 37 37 38 39 40 40 41 42 43 44 46 47 48 49 48 46 43 42 42 42 42 41 40 40 40 41 42 42 42 42 42 43 45 47 50 52 53 53 54 54 54 52 49 47
25 24 23 22 21 21 22 22 23 23 24 24 26 27 27 27 28 29 29 30 31 32 32 32 32 33 33 34 34 33 34 34 34 35 36 35 35 35 35 36 37 37 38 39 39 40 40 41 42 43 45 46 48 48 49 47 44 42 41 41 40 40 40 39 39 40 41 42 41 41 41 42 43 45 47 49 51 53 54 55 56 55 52 50 48
24 23 23 22 21 21 22 22 21 22 22 23 25 27 28 27 27 29 30 31 32 32 33 34 34 34 34 34 34 34 33 33 34 35 34 34 34 35 35 36 37 38 39 39 40 40 40 41 42 43 45 46 48 48 47 44 41 39 39 39 38 38 38 38 38 39 40 41 40 40 40 42 43 45 47 49 51 52 53 55 56 56 54 51 49
22 22 22 22 22 22 22 22 22 22 22 23 24 26 28 28 28 28 30 31 32 33 34 35 35 35 35 35 34 33 32 33 33 34 34 34 35 35 36 37 38 39 40 40 40 40 41 41 42 43 45 46 47 47 45 41 38 38 38 38 38 37 37 37 38 39 40 40 40 39 40 42 44 45 47 49 51 52 53 54 56 57 56 52 49
21 21 21 22 22 23 23 23 23 23 23 24 25 26 27 28 28 28 29 31 32 33 35 37 39 39 36 33 32 31 32 32 33 33 34 34 34 35 36 37 38 40 40 40 40 41 41 41 41 43 45 46 47 45 42 38 37 38 38 38 38 38 37 37 38 39 40 40 40 40 41 42 44 46 47 49 51 52 54 55 56 58 59 56 50
21 21 22 23 23 23 24 24 24 24 24 25 26 27 28 29 29 29 30 31 32 34 36 38 38 36 32 29 29 30 31 32 33 34 33 33 34 34 35 37 39 41 41 41 42 42 41 40 41 43 44 45 45 42 39 36 36 37 38 38 38 37 37 37 38 39 39 40 41 41 41 43 44 46 47 49 51 52 54 55 57 59 60 58 53
22 22 23 23 24 24 24 25 25 25 25 26 27 28 29 29 29 29 31 32 32 34 36 35 32 30 28 28 29 31 32 33 33 33 33 33 33 34 35 36 39 41 43 43 42 40 39 39 42 43 44 44 43 39 36 35 35 36 37 37 37 37 37 38 39 39 39 40 40 41 42 43 44 46 48 50 51 53 54 56 57 58 59 59 55
23 23 24 24 24 25 25 26 26 26 26 26 27 28 28 29 29 29 31 32 32 34 34 32 31 31 31 31 31 32 33 33 33 33 33 33 34 34 35 36 38 40 42 40 37 37 38 40 42 43 43 43 40 36 34 34 34 35 35 35 36 36 37 38 39 39 39 40 40 41 42 43 45 47 49 51 52 54 55 56 56 57 59 60 57
23 24 24 25 25 25 25 25 25 26 26 27 27 28 28 29 29 30 30 31 32 33 32 31 31 32 32 32 33 34 34 34 33 33 33 33 34 34 35 36 36 37 37 36 35 38 40 41 42 43 43 41 37 33 32 32 33 34 34 34 35 35 37 38 39 39 40 40 41 41 42 44 45 47 49 51 52 54 55 57 57 58 59 60 58
23 24 23 23 23 24 24 25 25 26 27 28 28 28 28 29 29 30 31 32 32 32 32 33 33 33 33 34 34 34 34 34 33 33 33 33 33 34 35 35 35 34 35 36 37 39 40 41 42 43 42 39 34 31 31 31 31 32 32 33 34 35 36 37 39 39 40 41 41 41 42 44 46 48 49 51 52 52 54 56 57 58 59 60 59
22 22 22 23 23 24 24 25 26 27 27 28 28 29 29 29 30 31 32 33 32 32 33 34 34 34 34 34 34 34 34 34 33 33 33 33 33 34 35 34 34 34 35 36 38 39 40 42 43 42 40 35 30 29 29 29 30 30 31 32 33 34 36 37 38 39 40 40 41 42 43 44 46 48 48 49 50 51 53 55 56 58 59 60 60
22 23 23 24 24 25 26 26 27 28 28 29 29 30 30 30 31 32 33 33 33 33 34 35 35 35 35 35 35 35 34 33 33 33 33 33 34 34 34 33 33 34 35 36 38 39 40 41 42 41 37 31 28 28 28 28 28 29 30 31 32 33 35 36 37 38 39 40 40 41 43 44 45 46 47 48 50 52 54 55 57 58 59 61 62
24 24 24 25 25 27 28 29 29 30 30 30 31 31 31 31 32 34 35 35 34 34 36 36 36 36 36 36 36 35 34 33 32 32 33 34 34 34 33 33 32 33 35 36 38 39 40 41 41 39 33 28 27 27 27 27 27 28 29 29 30 32 34 35 36 37 38 39 39 40 42 43 45 46 46 47 49 51 53 55 57 58 59 60 62
25 25 25 26 27 29 30 31 31 31 32 32 32 33 33 34 34 35 36 35 35 35 36 37 37 37 36 36 35 34 33 32 32 33 34 34 34 33 32 31 31 33 35 37 38 38 39 41 40 36 30 26 26 26 26 26 27 27 28 28 29 31 33 35 36 37 38 39 39 40 41 42 44 45 45 46 47 49 52 54 56 58 58 59 61
27 27 27 28 30 31 32 32 33 33 33 33 34 35 36 36 36 36 36 36 36 36 37 38 37 36 35 35 34 33 33 32 33 33 34 34 33 32 30 29 31 34 35 36 37 38 39 40 38 33 27 25 25 25 24 25 26 27 27 28 29 31 33 34 36 37 38 39 39 40 41 43 44 45 44 45 46 48 51 52 54 56 58 59 61
31 30 30 32 33 34 35 35 35 35 35 35 35 36 36 37 37 36 36 36 37 37 37 37 37 35 34 34 33 32 32 33 33 33 33 33 32 30 29 30 32 34 35 36 37 38 39 40 36 29 25 24 24 23 23 23 25 26 27 28 30 32 33 35 36 37 38 39 40 40 41 42 43 44 44 44 45 47 49 50 52 53 55 58 60
35 35 35 36 37 37 37 37 37 37 36 37 37 36 36 36 36 36 36 36 36 36 36 35 35 34 34 33 33 32 33 34 33 33 32 32 32 30 30 31 33 34 35 36 37 39 39 38 33 26 24 23 23 22 22 22 23 24 26 28 30 31 33 34 35 36 37 39 40 40 41 42 43 43 43 43 44 45 47 48 50 51 52 54 57
38 39 39 39 39 39 38 38 38 38 37 38 37 36 36 36 36 35 35 35 35 35 34 34 35 35 35 34 33 33 34 34 33 33 33 33 32 31 31 32 33 34 35 36 38 39 39 35 29 24 23 23 23 22 21 21 22 24 25 27 29 31 32 33 34 35 37 38 39 40 41 42 42 43 42 42 43 44 46 47 47 48 50 51 53
39 40 40 40 39 38 38 37 37 37 36 35 35 35 35 34 34 35 35 35 36 35 34 34 35 36 35 34 33 34 34 34 33 33 33 33 33 32 32 33 34 34 35 37 38 38 37 32 26 23 23 23 23 21 20 20 21 23 25 27 29 30 31 32 33 34 36 37 39 39 40 41 42 42 42 42 42 44 45 45 45 46 47 48 50
39 40 40 39 38 37 36 36 35 34 33 33 33 33 34 34 34 34 34 34 35 34 34 34 34 34 34 34 34 35 35 34 33 34 33 33 32 32 32 33 34 35 36 37 37 37 34 29 24 22 22 23 23 21 20 20 21 23 25 27 28 30 31 31 33 34 35 37 38 38 39 40 41 42 41 41 42 43 44 44 44 44 46 46 47
39 39 39 38 37 35 34 33 33 32 32 32 32 32 33 33 33 33 33 33 33 33 34 33 33 33 34 34 34 35 35 35 34 34 34 32 32 32 31 32 34 35 36 37 37 35 31 26 21 21 22 23 23 21 20 20 21 22 24 26 28 29 30 31 32 33 34 36 37 38 39 40 40 41 41 41 41 43 44 44 43 43 44 45 46
37 37 37 37 36 34 32 31 31 31 31 31 31 31 32 32 32 32 33 33 33 33 33 33 34 34 34 35 35 35 35 35 35 35 34 31 30 30 31 32 34 36 37 37 36 33 29 23 20 21 22 22 22 20 20 20 21 22 24 26 27 28 29 30 31 32 34 36 37 38 39 39 39 40 40 40 41 42 43 43 42 42 43 44 45
34 35 35 35 34 33 32 31 31 31 31 31 30 30 31 31 32 32 32 33 33 34 34 34 34 35 35 35 36 36 36 36 35 35 33 30 29 30 31 34 35 36 36 36 35 32 27 22 20 21 22 22 21 20 20 20 21 22 24 25 26 28 29 29 30 32 33 35 36 37 38 39 39 39 39 40 41 42 43 42 41 41 42 43 44
34 34 34 34 33 32 32 31 30 30 30 30 30 30 31 31 31 32 32 33 33 34 34 35 36 36 36 36 36 37 36 35 35 34 32 30 29 31 33 34 34 34 33 33 33 30 25 21 20 21 21 21 20 20 19 20 21 22 23 24 25 27 28 28 29 31 32 34 35 37 38 38 38 38 39 39 40 41 41 41 41 40 40 41 43
31 31 32 33 32 32 32 31 30 30 30 30 30 30 31 31 31 32 32 33 34 35 36 37 37 37 37 37 37 37 36 35 34 33 31 30 31 32 33 34 33 32 32 32 31 29 24 21 21 21 21 20 20 19 19 19 21 22 23 24 25 26 27 28 29 30 32 33 34 35 37 38 38 38 38 39 40 40 40 40 39 39 40 41 42
30 30 30 31 32 32 32 31 31 31 31 30 30 30 30 31 31 32 33 34 35 36 37 38 38 38 38 38 37 37 36 35 33 32 31 31 32 32 32 32 31 31 32 32 31 28 24 21 21 22 21 20 19 19 18 19 20 21 22 23 24 25 26 27 28 30 31 32 34 34 35 36 37 37 38 39 40 40 39 38 38 38 38 39 41
30 31 31 31 32 32 32 31 31 31 31 31 30 30 31 31 32 33 35 36 36 37 38 39 39 39 38 38 37 36 35 34 32 30 29 29 29 30 29 28 28 29 30 32 32 28 24 22 22 22 20 20 19 19 18 19 20 21 22 23 24 25 26 27 28 29 30 32 33 34 34 35 36 36 37 39 39 39 38 37 37 37 37 38 39
30 31 31 31 32 32 32 31 31 31 32 31 31 31 32 32 33 34 35 36 37 38 39 39 39 38 38 38 36 35 34 33 31 29 27 26 26 26 26 26 27 28 30 32 32 28 23 22 22 22 20 20 20 19 19 19 20 21 22 23 24 25 26 26 27 29 30 32 33 34 34 35 35 36 37 38 38 38 38 37 36 36 37 37 38
30 31 31 31 31 31 31 31 32 32 32 32 32 32 33 33 34 35 36 37 38 38 38 38 38 38 37 36 35 34 33 32 31 29 27 25 24 24 24 26 29 31 33 34 32 27 23 22 22 22 21 20 20 20 19 19 20 21 22 23 24 25 26 26 27 29 30 31 32 33 34 34 35 35 36 37 37 37 37 37 36 36 36 36 37
31 31 31 31 31 31 31 31 31 32 32 32 32 32 33 33 34 35 36 36 36 36 36 36 36 36 34 33 32 32 32 32 31 30 28 27 25 25 27 30 32 34 35 35 32 26 22 22 23 22 21 21 21 21 20 20 21 22 23 23 24 25 26 26 27 28 30 31 32 33 34 34 35 35 35 35 36 36 36 36 36 35 35 36 36
31 31 31 31 31 31 31 30 30 30 31 31 31 32 33 34 34 35 35 35 35 35 35 35 35 34 33 32 32 32 33 33 32 31 30 29 27 27 31 33 33 33 35 35 31 25 22 22 23 23 22 22 22 22 21 21 21 22 23 24 24 25 26 26 27 28 30 31 32 33 33 34 34 34 34 35 35 35 35 35 35 35 35 35 35
32 31 31 31 30 30 30 30 29 29 30 30 31 32 33 33 33 34 35 35 35 36 36 36 36 35 34 34 34 34 34 34 33 32 31 29 27 29 31 31 30 31 34 34 29 24 22 22 23 23 23 23 23 23 22 22 22 23 24 24 25 26 26 26 27 28 29 31 32 32 33 33 33 34 34 35 34 34 34 34 35 35 34 34 34
31 31 31 31 31 31 30 29 29 29 29 30 31 31 32 32 33 34 35 36 37 37 37 37 36 36 35 35 35 35 35 35 35 34 32 30 29 30 30 28 28 30 32 31 27 24 22 23 24 24 24 24 24 23 23 23 23 24 24 25 25 26 27 27 27 28 29 31 32 33 33 33 34 34 34 34 34 34 34 34 34 34 33 33 33
31 31 31 31 32 32 31 29 28 28 29 30 31 31 32 33 34 35 36 36 36 36 36 35 35 35 35 35 36 36 36 36 36 35 33 32 31 31 29 27 27 30 31 29 26 23 22 23 24 24 24 24 24 24 23 23 24 24 24 25 26 27 27 27 27 28 30 31 32 33 33 33 33 33 33 34 34 33 33 33 33 33 33 33 33
29 29 29 30 31 31 29 28 27 28 29 31 31 32 33 34 35 35 35 35 34 33 32 32 33 34 35 36 37 37 37 37 36 34 33 33 32 31 29 27 28 30 30 27 24 23 23 24 24 25 25 25 25 25 24 24 24 24 25 25 26 27 28 28 27 28 29 31 32 33 34 33 33 33 33 34 33 33 33 32 32 32 32 32 32
28 28 27 26 25 24 24 25 27 29 30 30 31 32 33 34 34 34 34 33 33 32 33 34 36 37 37 37 37 37 36 36 36 36 35 35 34 32 30 29 29 30 29 25 24 23 23 24 25 25 25 25 25 25 25 24 24 24 25 26 27 28 29 29 28 28 29 31 31 32 33 34 33 33 33 33 33 32 32 32 32 31 31 30 30
29 28 27 25 24 24 26 28 29 30 30 31 31 32 33 34 35 35 35 35 36 37 37 38 38 37 37 36 35 34 33 33 34 36 37 37 36 34 32 31 31 30 27 24 23 23 24 25 25 25 26 26 26 25 25 24 24 25 26 26 27 28 29 29 29 29 30 31 31 32 33 33 34 33 33 33 33 32 32 31 31 31 30 30 29
29 29 29 29 29 30 31 31 31 31 32 32 33 34 36 37 38 38 38 39 39 39 39 38 37 37 36 34 33 32 30 30 30 31 33 35 36 36 33 32 30 28 25 23 23 23 24 25 25 25 26 26 26 25 25 25 25 26 27 27 28 29 30 30 30 30 31 32 32 32 32 33 33 34 33 32 32 32 32 31 31 30 30 29 29
29 30 30 31 32 32 32 32 33 34 35 35 36 37 38 39 39 39 39 39 39 38 37 36 36 36 35 34 33 32 29 28 28 29 31 33 34 33 32 30 28 25 23 23 23 23 24 25 25 25 26 26 26 25 25 26 26 27 28 28 29 30 31 31 31 31 32 32 33 33 32 33 33 34 34 33 32 32 31 31 30 29 29 29 29
31 31 32 33 33 34 34 34 35 35 34 34 34 34 34 34 35 36 37 37 37 36 35 35 35 35 35 34 33 31 29 29 29 30 31 31 31 30 29 27 25 23 23 23 23 23 25 25 25 25 26 27 26 26 26 27 28 28 29 29 30 31 32 32 32 32 33 33 33 33 32 32 33 34 34 33 33 33 32 31 31 30 29 28 28
32 33 34 34 35 35 35 34 34 33 31 30 30 31 30 31 32 34 35 36 36 35 34 33 34 34 32 30 29 28 28 29 31 32 31 30 29 28 27 25 24 24 23 23 22 23 24 25 25 26 26 27 26 26 27 28 28 29 29 30 31 32 33 33 32 33 33 34 34 33 33 32 33 34 34 33 33 33 32 32 31 31 29 28 28
33 34 35 35 34 33 32 30 30 30 29 29 30 31 31 31 32 34 35 36 36 34 33 33 33 33 30 27 27 28 29 29 29 30 28 26 26 25 25 24 24 24 23 22 22 23 24 25 25 26 26 26 26 26 27 28 29 29 30 31 32 33 33 33 33 34 34 34 34 34 33 33 33 34 34 34 34 34 33 33 32 31 30 28 28
33 33 33 32 30 28 27 27 27 28 29 29 30 30 31 32 33 33 35 36 35 34 32 32 32 32 30 28 28 29 30 28 27 26 25 24 24 23 23 23 24 24 22 21 22 23 24 24 25 25 25 26 26 26 27 28 29 30 31 32 33 33 34 34 34 35 35 35 35 34 33 33 33 34 34 34 34 34 34 33 33 32 31 30 28
30 29 28 26 25 25 26 26 27 27 28 28 29 30 31 32 32 32 32 33 32 32 31 30 31 31 31 30 29 29 29 28 27 26 26 26 25 24 22 23 23 23 22 21 22 23 24 24 24 24 25 25 26 27 28 29 29 31 32 33 33 34 34 35 35 36 36 36 35 34 34 34 34 34 34 34 35 35 34 34 34 33 32 31 30
26 25 24 24 24 25 25 26 26 27 27 28 29 29 29 30 30 29 28 27 27 28 28 28 29 29 29 29 29 30 30 29 28 27 27 27 27 27 25 24 23 23 22 22 22 23 24 24 24 25 25 26 27 28 28 29 31 32 33 33 34 34 35 35 36 36 36 36 35 35 35 35 35 35 35 35 35 35 35 35 35 34 33 32 31
Wind_Direction
246 246 244 243 245 247 247 245 241 239 242 245 246 249 251 253 254 256 257 259 262 265 266 267 267 269 271 274 276 279 282 284 286 288 292 296 299 303 307 309 309 308 309 310 311 313 314 314 314 315 316 317 317 317 316 315 315 315 316 317 316 315 315 316 317 318 318 318 319 320 322 322 322 323 324 326 326 326 326 326 326 325 323 320 317
245 245 244 243 245 246 244 241 237 238 241 243 246 249 251 253 255 257 258 260 263 265 266 266 268 271 274 277 279 281 283 285 286 289 292 295 299 303 306 306 306 306 307 309 310 311 312 313 313 313 314 315 316 316 315 315 316 316 317 317 315 315 316 317 318 319 319 319 320 321 322 321 322 323 325 326 326 327 327 327 327 327 324 321 318
243 244 243 243 244 242 239 237 237 240 242 245 248 251 253 255 257 258 259 261 263 265 265 267 269 273 276 278 280 283 285 286 287 289 292 295 299 302 304 304 304 305 307 308 309 310 311 311 311 312 313 313 314 315 315 316 316 317 317 316 316 316 317 319 319 320 320 320 321 322 321 321 321 323 324 325 326 327 328 329 329 329 327 324 319
242 243 243 243 242 240 237 237 241 243 245 247 249 252 255 257 258 258 260 262 264 265 266 268 271 274 277 279 282 285 287 288 289 290 293 296 299 301 302 302 303 305 306 307 308 309 309 310 310 310 311 312 314 315 315 316 316 317 316 316 316 318 319 320 320 320 321 322 322 322 321 320 321 322 324 326 327 329 330 331 331 331 330 327 320
243 243 243 243 243 240 238 239 242 245 247 248 250 254 258 259 260 260 261 263 265 266 268 270 273 275 277 280 284 287 289 290 291 293 295 297 299 300 300 301 304 305 305 306 306 307 308 308 308 308 309 311 313 315 315 315 316 316 316 316 318 319 320 321 320 321 322 323 322 321 320 320 321 323 325 326 328 330 332 332 333 334 332 329 324
244 244 244 245 245 244 243 243 245 247 248 250 254 258 261 262 262 262 264 265 267 269 271 272 274 276 278 281 284 288 290 292 295 296 297 298 298 298 300 302 305 305 304 305 305 306 306 306 306 307 308 310 313 314 315 315 316 316 316 317 319 320 321 321 321 322 323 323 322 321 320 320 322 324 326 328 330 331 333 334 336 337 336 332 328
245 246 246 246 247 249 249 249 249 250 251 253 257 260 262 263 263 264 266 268 270 271 272 273 275 276 279 281 284 288 291 295 297 297 297 297 297 299 302 304 305 304 304 304 304 304 304 304 305 306 308 310 312 313 314 314 315 315 316 318 319 320 321 321 322 323 323 323 323 322 321 322 324 326 328 330 331 332 334 336 338 339 339 336 332
244 246 247 248 249 252 253 254 253 253 254 255 257 259 260 261 262 264 267 270 271 272 272 273 275 276 278 280 283 288 292 296 297 296 295 296 298 302 304 305 304 304 304 303 303 302 302 302 304 305 307 310 312 313 313 314 314 315 317 319 319 320 321 322 324 324 324 324 324 323 323 324 325 328 330 331 332 334 336 338 340 342 340 339 337
244 245 247 249 250 253 255 256 257 258 258 258 258 260 260 260 263 265 268 271 272 273 274 275 276 276 276 279 283 287 292 295 294 294 295 299 303 305 305 305 305 304 303 302 301 300 300 301 303 305 307 310 311 312 313 313 314 316 318 319 319 320 321 323 325 326 325 326 325 325 325 325 327 330 331 333 334 336 337 339 342 343 342 342 342
243 244 245 247 250 254 257 259 261 262 262 261 262 265 264 263 264 267 270 272 275 276 277 277 276 275 275 278 282 287 291 293 293 295 299 303 305 305 305 305 305 304 302 300 299 298 299 300 303 305 307 309 311 311 311 312 314 317 318 319 319 321 323 325 327 328 328 327 326 327 327 328 329 331 333 335 336 337 338 340 343 345 344 344 344
245 244 245 248 251 255 258 261 262 263 264 264 266 268 268 269 270 271 273 276 278 279 279 280 278 275 275 278 282 288 293 294 295 299 302 304 305 305 305 306 305 303 301 299 298 297 297 300 303 305 307 309 310 310 311 313 316 318 319 319 320 322 325 328 329 330 329 328 328 329 329 330 331 333 334 336 337 338 340 342 344 346 346 344 343
249 249 250 251 253 255 258 260 262 262 263 266 268 268 268 271 274 275 275 278 280 282 284 286 283 279 278 282 287 292 295 296 298 301 303 303 304 304 305 305 302 301 300 299 298 296 296 300 304 306 307 309 310 310 313 316 318 319 319 320 322 324 327 330 331 331 330 329 329 330 330 331 332 333 335 337 338 340 341 344 345 346 346 345 344
254 254 254 254 254 255 257 259 261 262 263 266 268 267 267 270 273 274 275 278 280 282 286 289 289 289 291 294 295 296 297 298 300 302 302 303 303 304 304 302 300 300 299 297 297 298 300 303 306 307 308 310 310 311 315 318 319 319 320 322 324 326 329 330 331 331 330 330 330 330 331 332 333 334 336 337 339 341 343 345 346 346 346 346 347
255 254 255 255 255 256 258 260 261 262 263 265 267 268 270 272 273 274 276 278 280 282 284 286 289 294 298 297 297 297 298 300 301 302 303 304 303 304 304 302 302 303 300 298 301 306 307 307 307 309 310 310 310 313 318 319 319 320 321 323 325 327 329 330 331 330 331 331 331 331 332 333 334 336 337 339 341 343 344 345 345 345 346 348 349
253 254 256 257 258 259 260 261 263 265 266 268 271 272 274 276 277 277 277 278 280 283 285 286 289 292 295 295 296 298 299 301 303 303 304 304 303 303 303 303 303 303 302 304 309 310 309 308 310 311 311 310 311 316 319 319 320 321 322 324 325 327 329 330 330 331 331 332 332 332 333 334 336 337 338 340 342 344 344 344 344 345 348 349 350
253 255 256 258 259 260 262 264 267 269 271 274 277 278 279 280 280 280 280 280 281 283 285 287 289 291 293 295 297 299 301 302 303 303 303 303 303 303 302 302 301 301 304 308 310 309 309 310 311 311 310 309 312 317 319 318 320 322 323 324 326 327 329 330 330 331 332 332 333 334 335 336 338 339 341 342 343 344 344 344 344 346 348 349 350
253 255 257 259 261 263 266 269 272 274 276 279 281 282 283 283 282 282 282 283 284 285 285 287 290 292 294 297 298 300 301 302 302 303 303 303 303 303 302 301 300 302 306 308 308 308 308 309 310 309 308 309 314 318 317 318 320 322 322 324 326 328 329 329 330 331 331 333 334 335 337 338 340 341 342 342 342 343 344 344 345 347 348 350 351
252 255 259 263 266 268 271 273 276 278 280 282 283 284 285 283 282 282 283 284 285 286 287 289 292 294 297 298 299 300 301 301 302 302 303 303 303 303 301 299 300 303 306 307 306 307 308 309 309 307 306 310 315 316 316 318 320 321 321 324 326 327 328 329 329 330 331 333 335 336 338 340 340 341 343 343 343 344 345 345 346 347 349 350 352
252 256 260 266 269 272 274 276 277 280 281 282 283 284 283 281 280 281 283 285 287 288 289 290 293 295 296 297 298 299 300 301 301 302 302 303 303 302 300 299 301 304 305 304 304 306 307 308 307 305 306 311 314 314 315 318 319 319 321 324 326 326 327 328 329 330 332 333 335 337 338 339 340 342 343 344 345 346 346 346 347 348 349 351 352
254 259 264 268 270 273 275 276 277 278 279 281 282 282 281 280 280 282 284 286 288 287 288 290 293 294 294 295 296 298 299 300 301 302 303 304 303 301 300 300 302 302 302 302 303 305 307 307 305 303 306 310 312 313 316 318 318 318 321 324 326 327 328 329 329 331 332 334 336 337 338 340 341 343 345 347 347 347 347 348 348 348 349 351 352
257 262 268 271 274 275 275 276 277 278 279 280 281 281 281 281 282 284 285 286 287 287 288 291 293 292 292 293 296 298 299 300 302 303 304 304 302 300 299 300 301 300 300 301 303 305 306 305 303 302 306 310 310 312 315 316 316 318 321 324 326 328 329 329 330 331 333 335 337 338 340 341 342 344 346 348 348 349 349 349 348 348 349 350 352
260 264 270 274 275 276 275 275 276 277 278 279 278 279 280 281 283 284 285 286 286 287 289 291 291 289 291 293 296 298 299 301 303 304 304 303 301 298 296 297 299 299 300 302 303 305 305 304 300 301 306 308 308 310 314 314 315 318 321 325 327 329 329 329 330 331 334 336 337 339 341 341 343 345 347 349 350 350 350 350 349 349 350 350 352
262 264 269 273 275 275 275 275 276 276 277 277 277 278 279 281 282 284 284 285 285 286 289 289 288 288 291 294 296 298 300 302 303 304 304 303 299 295 293 295 297 299 300 301 302 304 304 302 298 300 304 305 305 309 312 313 315 318 322 325 327 328 329 329 330 332 334 336 337 339 341 342 343 345 347 349 351 351 351 351 350 350 351 352 352
263 265 268 272 274 274 274 275 275 275 276 276 277 278 279 280 282 282 283 283 284 286 287 285 284 287 292 294 297 299 301 302 303 304 304 301 297 293 293 295 297 300 301 300 301 303 302 299 297 300 302 302 304 308 311 312 314 318 322 325 326 327 328 329 330 332 334 336 338 339 341 342 343 346 348 350 351 351 352 352 351 351 352 353 353
266 268 270 272 273 273 273 273 273 273 273 274 275 276 277 278 279 281 282 283 284 285 285 283 284 288 292 295 297 300 301 301 302 303 303 300 296 294 294 296 298 300 301 300 300 301 299 296 296 298 300 300 302 307 310 312 314 318 322 325 326 326 327 328 331 334 336 337 338 339 340 342 344 346 348 350 351 351 352 353 353 352 353 355 355
269 270 271 271 271 271 271 271 270 270 270 271 272 273 275 277 278 280 282 283 284 285 285 285 287 290 292 296 298 299 300 300 301 301 301 298 294 293 293 296 298 300 300 299 298 298 296 295 295 296 296 298 301 306 310 312 314 318 322 323 324 324 326 330 334 336 337 337 337 338 340 343 344 346 348 350 350 351 352 354 354 354 353 355 356
270 271 271 271 270 270 270 269 269 269 270 270 271 273 275 277 279 280 281 282 283 284 285 286 289 291 294 297 298 298 299 300 300 300 298 295 292 291 292 295 297 298 298 297 296 296 295 294 292 292 293 296 300 305 309 311 314 318 319 321 323 326 329 333 335 335 336 336 337 339 341 343 345 346 348 349 350 351 352 353 355 356 355 355 357
270 270 270 269 269 269 268 268 269 269 270 271 273 274 276 277 278 279 280 281 282 283 285 288 291 293 295 297 297 298 299 299 300 299 296 291 288 289 292 294 296 297 296 296 295 295 294 292 289 289 291 294 299 304 307 309 312 315 318 321 325 328 330 333 334 335 336 337 338 340 341 343 345 346 347 349 350 351 352 353 355 357 356 356 357
269 269 269 268 268 268 268 269 269 270 271 272 272 273 274 274 276 277 279 280 282 284 287 289 291 293 295 297 298 299 299 299 299 298 293 287 285 288 292 294 296 297 297 296 295 294 292 288 285 286 289 293 298 302 304 307 311 314 318 322 326 327 329 333 335 336 337 338 339 340 341 343 345 346 347 349 350 351 351 353 355 357 358 357 357
268 268 267 266 266 267 268 268 269 270 270 270 270 270 271 273 275 276 278 280 283 286 288 290 291 294 296 297 298 298 298 298 297 295 292 286 284 287 292 296 299 300 300 299 296 292 288 284 283 284 287 291 295 298 302 305 310 313 317 322 325 326 329 332 334 336 337 338 339 340 341 343 345 346 347 348 349 351 352 353 355 357 359 359 359
270 269 267 266 265 266 268 268 269 269 268 268 269 270 271 273 275 277 279 282 284 286 288 290 292 294 296 297 297 297 297 295 294 294 292 287 283 287 294 299 302 302 302 301 298 291 285 282 281 282 285 288 291 295 299 303 308 311 316 320 323 325 328 331 333 334 336 338 339 340 342 344 345 346 346 347 349 351 352 354 355 357 359 0 0
271 270 268 266 265 266 267 267 268 268 268 269 270 271 272 274 276 278 281 282 284 286 288 290 293 294 295 295 295 295 294 292 292 293 291 285 284 289 295 298 300 300 301 301 296 289 282 279 280 281 282 285 288 291 295 300 304 309 314 319 322 324 327 330 332 334 335 337 339 341 342 344 345 346 346 347 348 351 353 355 356 357 359 1 1
269 269 268 266 265 266 266 267 268 269 270 271 271 272 274 275 276 278 280 282 285 287 288 290 292 293 293 293 292 291 290 289 289 289 288 285 287 291 294 295 296 299 301 299 293 285 279 278 279 279 279 281 285 288 292 297 302 308 313 317 320 323 327 329 331 333 334 336 338 340 342 344 346 346 347 347 348 351 354 356 356 357 359 1 2
267 267 266 266 266 267 268 269 270 271 272 272 273 274 274 275 277 279 281 283 285 286 288 290 291 291 291 291 289 288 287 286 286 286 285 284 285 287 290 294 297 299 300 296 289 282 277 277 277 277 277 279 281 284 288 294 301 306 311 315 319 322 326 329 331 332 333 335 337 340 342 345 346 346 346 347 349 351 354 356 357 358 359 0 2
265 266 267 268 268 269 270 270 271 272 273 273 274 274 275 277 278 280 281 282 284 286 287 289 289 289 289 289 287 286 285 285 285 284 279 276 277 282 288 292 295 296 296 291 285 279 275 275 275 275 275 276 277 281 286 292 299 304 308 313 318 321 324 328 330 332 333 334 337 339 342 344 346 347 347 347 349 351 354 356 358 358 359 0 1
268 269 269 270 270 271 271 271 271 272 273 273 274 275 276 277 278 279 280 282 284 285 286 287 287 288 288 287 286 285 284 284 284 282 276 272 275 282 287 289 291 293 291 287 282 276 273 273 273 273 273 273 274 278 283 290 297 302 306 311 316 319 323 326 329 330 332 333 336 338 341 343 345 346 347 347 348 351 353 355 356 358 359 360 360
272 272 273 273 273 273 272 272 272 272 272 273 274 274 275 276 277 279 281 282 284 284 285 285 286 286 286 286 285 285 284 284 284 282 276 271 273 280 285 287 289 291 289 285 280 274 271 270 271 271 271 272 273 276 281 288 295 299 304 309 314 317 321 325 328 330 331 332 334 337 339 341 343 345 346 347 348 351 352 353 355 356 358 359 359
272 273 273 272 272 271 270 270 270 271 271 272 272 273 274 276 278 280 281 282 283 283 282 283 283 283 284 285 285 286 286 285 283 281 275 269 271 278 283 284 285 288 288 284 278 272 269 268 269 270 270 271 272 275 280 287 293 297 302 307 311 315 319 323 326 328 330 331 332 334 336 339 341 344 345 346 348 349 351 352 353 355 356 357 359
270 271 271 270 269 269 269 269 270 270 271 271 272 274 276 278 279 280 281 281 281 281 281 281 282 282 284 286 286 286 286 284 281 279 273 267 267 273 276 278 281 286 287 283 275 269 267 268 268 270 271 271 272 274 279 284 290 295 300 305 309 313 317 320 324 326 327 328 330 331 334 338 340 342 344 345 346 347 349 350 352 352 354 355 357
268 268 269 269 269 269 269 270 271 271 272 274 276 278 279 279 280 280 280 281 281 281 281 282 283 284 286 286 286 286 284 282 280 277 271 266 265 267 269 273 279 284 285 280 271 265 265 267 268 269 271 272 273 275 278 283 288 293 299 304 308 311 315 319 322 325 326 327 328 330 332 335 338 340 342 343 344 346 347 349 349 350 352 354 355
266 268 270 273 273 272 270 269 270 273 276 279 280 280 280 280 280 280 281 281 281 281 282 284 285 286 287 287 286 285 284 281 279 276 270 265 263 265 267 271 276 281 282 276 265 260 262 265 266 268 270 272 273 275 277 281 287 292 297 302 306 309 313 316 320 322 323 325 326 328 330 332 335 338 340 341 342 344 345 346 347 349 350 351 352
266 270 273 275 274 271 267 267 271 276 278 279 279 279 280 282 282 281 281 279 278 280 283 286 287 287 287 287 286 285 282 278 275 272 268 264 262 263 267 270 274 279 279 269 258 256 261 263 265 267 270 271 273 275 277 280 286 291 296 300 304 307 310 314 317 319 321 322 324 326 328 330 332 335 338 339 340 341 343 344 345 346 347 348 349
268 271 272 271 269 269 270 273 275 276 277 276 277 278 279 279 278 277 276 275 276 279 283 284 285 285 284 283 283 282 280 276 272 269 266 262 260 262 266 269 272 275 272 261 252 255 260 262 264 267 269 271 272 274 277 280 285 289 293 297 301 304 308 311 315 316 317 319 321 324 326 327 328 332 335 337 337 339 340 342 343 343 344 345 346
269 269 269 269 269 271 273 274 274 274 274 275 275 275 275 275 275 275 275 276 278 280 282 283 283 282 280 280 280 280 279 277 275 271 267 263 261 262 264 267 269 271 265 253 249 255 259 262 264 266 268 270 272 273 277 281 285 288 291 295 299 302 305 309 312 313 314 317 320 322 324 325 326 329 332 334 335 336 338 340 341 341 341 341 342
266 267 268 269 270 271 272 273 273 274 275 274 274 273 273 274 276 277 278 280 281 282 282 281 280 280 279 278 278 277 276 276 276 275 271 267 264 263 263 264 267 265 255 246 248 256 259 261 264 266 268 270 271 273 277 281 284 286 290 293 297 300 303 306 309 310 312 315 317 320 322 323 324 327 329 330 332 333 335 337 338 338 338 338 338
265 267 269 271 273 273 274 274 275 275 275 274 274 275 276 277 278 280 281 282 282 282 281 279 278 279 279 277 274 274 274 275 276 275 273 270 267 264 261 261 261 255 246 242 247 254 258 260 263 266 267 269 271 274 277 280 282 285 289 292 295 298 301 303 305 307 309 313 315 317 320 322 323 325 326 327 328 330 332 334 335 336 336 335 334
267 269 270 272 273 275 276 277 277 277 278 279 281 284 285 286 285 284 283 282 281 280 279 277 277 279 279 275 272 273 275 274 274 273 272 271 269 265 260 257 252 244 239 241 247 252 256 259 263 265 266 269 271 274 277 279 282 285 288 291 294 296 298 300 303 305 307 311 313 315 318 320 321 322 323 324 325 327 329 331 332 332 332 332 332
269 270 271 272 273 274 275 277 278 281 283 286 288 289 290 289 288 286 283 281 279 277 276 276 277 279 278 274 273 277 278 277 275 272 270 269 269 265 261 255 247 239 237 241 248 253 256 259 261 263 266 268 271 274 277 279 281 284 287 289 291 293 296 299 301 304 307 309 311 313 316 318 319 320 320 321 322 323 326 328 329 329 329 328 328
266 267 269 270 271 272 274 276 279 282 285 287 289 289 290 289 288 286 283 280 277 274 272 273 275 276 274 271 272 276 278 278 277 275 273 271 269 268 265 258 246 237 236 242 248 253 256 259 261 263 266 269 271 274 276 278 281 283 285 287 289 292 295 298 301 303 306 307 309 311 314 316 317 317 318 318 319 321 323 325 326 326 325 325 325
263 263 265 267 269 271 274 277 279 281 284 286 288 288 289 289 288 286 283 280 276 273 271 272 274 275 273 272 273 276 278 278 277 276 275 273 269 266 263 255 243 236 237 244 249 253 257 259 261 263 266 269 271 273 275 277 280 282 283 285 288 291 295 298 301 302 303 305 307 310 312 314 315 315 315 316 317 319 321 323 323 322 321 321 321
260 261 262 264 267 270 272 275 277 280 282 284 286 287 287 287 287 286 284 280 276 273 271 272 274 276 276 276 277 277 277 276 275 273 273 272 267 260 253 246 239 237 242 248 251 254 257 258 260 263 266 268 270 272 274 276 278 280 282 285 289 292 295 298 299 300 301 304 306 308 310 312 312 313 313 313 315 317 319 319 319 319 318 318 318
Height
5794 5794 5794 5794 5794 5794 5795 5795 5796 5796 5797 5797 5798 5799 5800 5800 5800 5801 5800 5800 5800 5800 5800 5800 5800 5799 5799 5798 5798 5797 5797 5796 5795 5794 5792 5790 5789 5787 5785 5782 5781 5779 5777 5774 5772 5770 5767 5765 5762 5760 5757 5754 5751 5748 5744 5741 5738 5735 5731 5728 5724 5721 5717 5713 5708 5704 5699 5696 5692 5688 5685 5681 5677 5674 5670 5665 5660 5655 5649 5642 5636 5630 5623 5616 5610
5791 5791 5792 5792 5792 5792 5792 5793 5793 5794 5794 5795 5796 5797 5797 5798 5798 5798 5798 5798 5798 5798 5797 5797 5797 5797 5796 5796 5795 5794 5794 5793 5791 5790 5788 5787 5785 5783 5781 5779 5777 5775 5773 5771 5768 5766 5764 5761 5759 5756 5753 5750 5747 5744 5740 5737 5733 5730 5727 5723 5719 5716 5713 5708 5704 5700 5696 5692 5688 5684 5681 5677 5674 5670 5666 5661 5656 5651 5645 5638 5631 5625 5618 5611 5605
5789 5789 5789 5789 5790 5790 5790 5791 5791 5792 5792 5793 5794 5795 5795 5795 5795 5796 5795 5795 5795 5795 5795 5794 5794 5794 5793 5793 5792 5791 5790 5789 5788 5786 5785 5783 5782 5780 5778 5776 5774 5772 5769 5767 5765 5762 5760 5758 5755 5752 5750 5746 5743 5740 5736 5732 5729 5725 5722 5718 5715 5711 5707 5704 5700 5696 5692 5688 5684 5680 5677 5674 5670 5667 5662 5657 5652 5647 5641 5634 5627 5620 5613 5606 5600
5786 5787 5787 5787 5787 5787 5788 5788 5789 5789 5790 5790 5791 5792 5793 5793 5793 5793 5793 5792 5792 5792 5792 5791 5791 5790 5790 5789 5789 5788 5787 5785 5784 5783 5781 5780 5778 5776 5774 5772 5770 5768 5766 5763 5761 5758 5756 5754 5751 5748 5746 5743 5739 5736 5732 5728 5725 5721 5718 5714 5710 5706 5703 5699 5695 5692 5689 5685 5680 5677 5674 5671 5667 5663 5659 5654 5648 5642 5636 5630 5623 5616 5609 5601 5595
5783 5784 5784 5784 5785 5785 5785 5786 5786 5787 5787 5788 5789 5789 5790 5790 5790 5790 5790 5789 5789 5789 5789 5789 5788 5787 5787 5786 5785 5784 5783 5782 5780 5779 5778 5776 5774 5773 5771 5769 5766 5764 5762 5759 5757 5754 5752 5750 5747 5744 5741 5739 5735 5732 5728 5725 5721 5717 5713 5710 5706 5703 5699 5695 5691 5688 5684 5681 5677 5674 5670 5667 5664 5659 5655 5650 5644 5638 5632 5625 5618 5611 5604 5596 5590
5781 5781 5781 5782 5782 5782 5783 5783 5784 5784 5785 5785 5786 5786 5787 5787 5787 5787 5787 5787 5787 5786 5786 5785 5785 5784 5784 5783 5782 5781 5780 5778 5777 5775 5774 5772 5771 5769 5767 5765 5762 5760 5757 5755 5753 5750 5748 5746 5743 5740 5737 5734 5731 5728 5724 5721 5717 5713 5710 5706 5703 5699 5695 5691 5688 5684 5681 5677 5674 5671 5667 5663 5660 5656 5650 5645 5640 5634 5629 5622 5614 5605 5598 5592 5586
5778 5778 5779 5779 5780 5780 5781 5781 5782 5782 5782 5783 5783 5783 5784 5785 5785 5784 5784 5784 5784 5783 5783 5782 5781 5781 5780 5779 5778 5777 5776 5774 5773 5771 5770 5768 5767 5765 5763 5760 5758 5755 5753 5751 5748 5746 5744 5741 5739 5736 5733 5730 5727 5724 5721 5717 5714 5710 5706 5702 5699 5696 5692 5688 5684 5681 5677 5674 5671 5667 5663 5660 5656 5652 5647 5641 5635 5629 5623 5618 5611 5602 5594 5587 5582
5775 5776 5777 5777 5777 5778 5778 5779 5779 5780 5780 5780 5780 5780 5781 5781 5781 5781 5781 5780 5779 5779 5778 5778 5777 5776 5776 5775 5774 5773 5772 5770 5769 5767 5766 5764 5763 5760 5758 5756 5753 5751 5749 5746 5744 5742 5739 5737 5734 5732 5729 5726 5723 5720 5717 5714 5710 5707 5703 5699 5696 5692 5689 5685 5682 5678 5674 5671 5668 5664 5660 5656 5652 5648 5643 5637 5632 5625 5618 5612 5605 5598 5590 5583 5577
5772 5773 5774 5775 5775 5775 5776 5776 5777 5777 5777 5777 5777 5776 5777 5778 5778 5777 5777 5776 5775 5775 5774 5774 5773 5772 5771 5770 5770 5769 5768 5766 5765 5764 5762 5760 5758 5756 5754 5751 5749 5747 5744 5742 5740 5737 5735 5733 5730 5728 5725 5722 5719 5715 5712 5709 5706 5703 5700 5696 5693 5689 5686 5682 5679 5675 5671 5668 5665 5661 5657 5652 5648 5644 5639 5633 5628 5622 5615 5608 5601 5594 5587 5580 5573
5769 5770 5771 5772 5773 5773 5773 5774 5774 5774 5774 5774 5774 5773 5773 5774 5774 5774 5773 5773 5772 5771 5770 5769 5768 5767 5767 5766 5766 5765 5764 5763 5761 5760 5758 5756 5754 5751 5749 5747 5745 5743 5740 5738 5735 5733 5731 5729 5726 5724 5721 5718 5714 5711 5709 5706 5703 5700 5697 5693 5690 5686 5683 5679 5676 5672 5668 5665 5661 5658 5654 5649 5644 5640 5635 5630 5624 5618 5611 5605 5597 5590 5583 5577 5572
5766 5767 5768 5769 5770 5770 5770 5771 5771 5771 5771 5771 5770 5770 5769 5769 5770 5770 5770 5769 5768 5768 5767 5765 5764 5763 5763 5762 5762 5761 5760 5759 5757 5756 5754 5751 5749 5747 5745 5743 5741 5738 5736 5734 5731 5729 5727 5725 5722 5720 5716 5713 5710 5707 5705 5702 5699 5697 5693 5690 5687 5684 5680 5676 5673 5669 5666 5662 5658 5654 5650 5645 5641 5636 5631 5626 5621 5614 5607 5600 5593 5586 5579 5573 5568
5763 5764 5765 5766 5767 5767 5767 5767 5767 5767 5767 5767 5766 5766 5767 5767 5767 5766 5766 5765 5765 5764 5762 5761 5759 5759 5759 5759 5758 5757 5755 5754 5753 5751 5749 5747 5745 5743 5741 5739 5737 5734 5732 5730 5727 5725 5723 5721 5718 5715 5712 5709 5706 5703 5700 5698 5695 5692 5689 5686 5683 5680 5676 5673 5670 5666 5663 5659 5655 5651 5647 5642 5637 5633 5628 5623 5617 5611 5604 5597 5589 5582 5576 5569 5563
5760 5761 5762 5763 5763 5764 5764 5764 5763 5763 5764 5764 5763 5763 5764 5763 5763 5763 5762 5761 5761 5760 5759 5757 5756 5755 5755 5754 5753 5752 5751 5750 5748 5746 5744 5742 5740 5739 5737 5735 5733 5730 5728 5725 5723 5721 5719 5717 5714 5711 5708 5704 5701 5699 5697 5694 5691 5689 5686 5682 5679 5676 5673 5669 5667 5663 5660 5657 5652 5648 5643 5639 5634 5630 5624 5619 5613 5607 5600 5593 5587 5580 5573 5566 5558
5757 5758 5758 5759 5759 5760 5760 5760 5760 5760 5760 5760 5760 5760 5760 5759 5759 5759 5758 5758 5757 5756 5755 5754 5752 5751 5751 5750 5749 5748 5747 5745 5743 5742 5740 5738 5736 5735 5733 5731 5728 5726 5723 5721 5719 5717 5715 5712 5710 5706 5703 5700 5697 5695 5693 5690 5688 5685 5682 5679 5676 5673 5669 5667 5664 5661 5657 5654 5650 5645 5640 5636 5631 5626 5621 5615 5609 5602 5596 5590 5585 5579 5571 5563 5555
5753 5754 5754 5755 5755 5756 5756 5756 5756 5756 5756 5756 5756 5756 5756 5756 5756 5755 5755 5754 5753 5753 5752 5750 5749 5748 5747 5746 5745 5744 5742 5741 5739 5737 5735 5734 5732 5730 5729 5727 5724 5722 5720 5717 5715 5713 5711 5708 5705 5702 5699 5696 5694 5692 5689 5687 5684 5682 5679 5676 5673 5670 5667 5664 5661 5658 5654 5651 5647 5642 5638 5633 5628 5623 5617 5611 5605 5599 5592 5586 5581 5575 5568 5561 5553
5750 5750 5751 5751 5752 5752 5752 5753 5753 5753 5753 5752 5753 5753 5752 5752 5752 5752 5751 5750 5750 5749 5747 5746 5745 5744 5743 5742 5741 5739 5738 5736 5735 5733 5731 5730 5728 5726 5724 5723 5721 5718 5716 5714 5712 5709 5707 5704 5702 5699 5696 5693 5691 5689 5686 5684 5682 5679 5676 5673 5670 5668 5665 5662 5659 5655 5651 5648 5643 5639 5635 5630 5625 5619 5613 5608 5602 5597 5591 5585 5578 5572 5565 5559 5551
5746 5746 5747 5748 5748 5749 5749 5749 5749 5749 5749 5749 5749 5749 5749 5749 5748 5748 5747 5747 5746 5745 5743 5742 5741 5740 5739 5738 5736 5735 5734 5732 5730 5729 5727 5726 5724 5722 5720 5718 5717 5714 5712 5710 5708 5706 5703 5701 5698 5695 5692 5690 5688 5686 5684 5682 5679 5676 5674 5671 5668 5665 5662 5659 5656 5653 5649 5645 5641 5637 5632 5627 5622 5616 5611 5605 5600 5595 5589 5583 5576 5569 5563 5556 5549
5742 5743 5744 5744 5744 5745 5745 5745 5745 5745 5745 5745 5745 5745 5746 5745 5745 5744 5744 5743 5742 5741 5739 5738 5737 5736 5735 5733 5732 5731 5729 5728 5726 5725 5723 5722 5720 5718 5716 5714 5712 5710 5708 5706 5704 5702 5700 5698 5695 5692 5689 5687 5685 5684 5682 5679 5677 5674 5672 5669 5666 5664 5661 5658 5655 5651 5647 5643 5639 5634 5630 5625 5621 5615 5610 5604 5598 5592 5586 5580 5573 5566 5560 5553 5546
5739 5740 5741 5741 5741 5741 5741 5741 5741 5741 5742 5742 5742 5742 5742 5742 5741 5740 5740 5739 5738 5737 5735 5734 5733 5732 5730 5729 5728 5727 5725 5724 5722 5721 5719 5718 5716 5714 5712 5710 5709 5707 5705 5703 5701 5699 5697 5694 5692 5689 5687 5685 5683 5681 5679 5677 5675 5672 5670 5668 5665 5662 5659 5656 5653 5650 5646 5642 5637 5633 5628 5624 5619 5614 5608 5602 5595 5589 5583 5576 5570 5564 5558 5551 5544
5736 5736 5737 5737 5737 5737 5737 5737 5737 5737 5737 5737 5738 5738 5738 5738 5737 5736 5736 5735 5733 5732 5731 5730 5729 5728 5726 5725 5724 5723 5721 5720 5718 5716 5715 5713 5712 5710 5708 5707 5705 5703 5701 5699 5697 5695 5693 5691 5688 5686 5684 5683 5681 5679 5677 5675 5673 5670 5668 5666 5663 5660 5657 5654 5651 5648 5644 5640 5636 5631 5627 5622 5617 5612 5606 5600 5594 5588 5582 5575 5568 5562 5556 5550 5544
5732 5732 5732 5733 5733 5733 5733 5733 5733 5733 5733 5733 5733 5733 5733 5733 5732 5732 5731 5730 5729 5728 5727 5726 5725 5724 5722 5721 5720 5719 5717 5716 5714 5712 5711 5709 5707 5706 5704 5703 5701 5700 5698 5696 5694 5692 5690 5687 5685 5683 5681 5680 5679 5677 5675 5673 5670 5668 5666 5664 5661 5658 5656 5653 5649 5645 5641 5637 5633 5629 5624 5620 5615 5610 5605 5600 5594 5588 5581 5574 5568 5561 5555 5549 5543
5727 5728 5729 5729 5729 5729 5729 5729 5729 5729 5729 5729 5729 5729 5729 5728 5727 5727 5726 5725 5724 5724 5723 5722 5720 5719 5718 5717 5716 5715 5713 5712 5710 5708 5707 5705 5703 5702 5701 5699 5698 5696 5694 5692 5691 5689 5686 5684 5682 5680 5679 5678 5676 5675 5673 5671 5668 5666 5664 5661 5659 5656 5653 5650 5647 5643 5639 5635 5631 5627 5623 5618 5614 5609 5604 5599 5594 5588 5581 5575 5569 5562 5555 5548 5541
5723 5724 5725 5725 5725 5725 5725 5725 5725 5725 5725 5724 5724 5724 5724 5723 5723 5722 5721 5721 5720 5719 5719 5718 5716 5715 5714 5713 5712 5710 5709 5707 5706 5704 5703 5701 5699 5698 5697 5696 5694 5693 5691 5689 5687 5685 5683 5680 5679 5677 5676 5675 5674 5673 5671 5669 5667 5664 5662 5659 5657 5654 5652 5649 5645 5641 5637 5633 5629 5625 5621 5617 5612 5608 5603 5598 5593 5588 5582 5576 5569 5563 5556 5549 5542
5720 5720 5721 5721 5721 5721 5721 5720 5720 5720 5720 5719 5719 5719 5719 5718 5718 5717 5717 5717 5716 5715 5715 5714 5712 5711 5710 5709 5707 5706 5705 5703 5702 5700 5699 5697 5696 5694 5693 5692 5690 5689 5687 5685 5683 5681 5679 5677 5676 5675 5674 5673 5672 5670 5669 5667 5664 5662 5660 5658 5655 5653 5650 5647 5643 5639 5635 5631 5627 5623 5619 5615 5611 5607 5602 5597 5593 5588 5582 5576 5570 5564 5558 5551 5544
5716 5716 5716 5716 5716 5716 5716 5716 5715 5715 5715 5714 5714 5714 5714 5714 5713 5713 5713 5712 5711 5711 5710 5709 5708 5707 5706 5704 5703 5702 5701 5699 5698 5696 5695 5693 5691 5690 5689 5688 5687 5685 5683 5681 5680 5677 5675 5674 5673 5672 5671 5670 5669 5668 5666 5664 5662 5660 5658 5656 5653 5651 5648 5645 5641 5637 5633 5630 5626 5622 5618 5614 5610 5605 5601 5596 5592 5587 5582 5577 5571 5565 5559 5553 5546
5711 5712 5712 5711 5711 5711 5711 5711 5710 5710 5710 5710 5710 5710 5709 5709 5709 5709 5708 5707 5706 5706 5705 5704 5703 5702 5701 5700 5699 5698 5696 5695 5694 5692 5690 5689 5688 5686 5685 5684 5683 5681 5679 5677 5675 5674 5672 5671 5670 5670 5669 5668 5666 5665 5664 5662 5660 5658 5656 5654 5652 5649 5646 5643 5639 5636 5632 5628 5625 5621 5617 5613 5608 5604 5600 5596 5591 5586 5582 5577 5571 5566 5560 5555 5549
5706 5706 5706 5706 5707 5707 5706 5706 5706 5705 5705 5705 5705 5705 5705 5705 5704 5704 5703 5703 5702 5701 5700 5700 5699 5698 5697 5696 5695 5694 5692 5691 5689 5688 5686 5685 5684 5683 5682 5680 5679 5677 5675 5674 5672 5670 5669 5668 5668 5667 5667 5665 5664 5663 5661 5660 5658 5656 5654 5652 5650 5647 5644 5641 5638 5634 5631 5627 5623 5619 5615 5611 5607 5603 5599 5595 5590 5586 5581 5576 5571 5566 5560 5555 5550
5701 5701 5701 5701 5702 5702 5702 5701 5701 5701 5701 5701 5700 5700 5700 5700 5699 5699 5699 5698 5698 5697 5696 5695 5695 5694 5693 5692 5691 5689 5687 5686 5685 5684 5682 5681 5680 5679 5678 5677 5675 5673 5672 5670 5668 5667 5666 5665 5665 5665 5664 5663 5661 5660 5659 5658 5656 5655 5652 5650 5648 5645 5642 5640 5636 5633 5629 5626 5622 5618 5615 5611 5607 5603 5598 5594 5590 5585 5580 5575 5571 5566 5560 5555 5550
5696 5696 5696 5696 5697 5697 5697 5697 5697 5696 5696 5696 5696 5695 5695 5695 5695 5694 5694 5694 5693 5692 5692 5691 5690 5689 5689 5688 5686 5684 5683 5682 5680 5679 5677 5677 5676 5675 5674 5673 5671 5670 5668 5666 5665 5664 5663 5663 5663 5662 5661 5660 5659 5658 5657 5655 5654 5652 5650 5648 5646 5643 5641 5638 5635 5631 5628 5625 5621 5617 5613 5609 5606 5602 5597 5593 5589 5584 5580 5575 5570 5566 5561 5556 5550
5691 5691 5691 5691 5691 5692 5692 5692 5692 5692 5691 5691 5691 5691 5690 5690 5690 5690 5690 5689 5689 5688 5687 5686 5685 5685 5684 5683 5682 5680 5678 5677 5676 5674 5673 5672 5672 5671 5670 5669 5667 5666 5665 5663 5662 5661 5660 5660 5660 5660 5659 5658 5656 5655 5654 5653 5652 5650 5648 5646 5644 5642 5639 5636 5633 5630 5627 5624 5620 5616 5612 5608 5605 5601 5597 5592 5588 5584 5580 5575 5570 5565 5561 5556 5551
5686 5686 5686 5686 5687 5687 5687 5687 5687 5687 5687 5687 5687 5686 5686 5686 5686 5685 5685 5685 5684 5683 5682 5682 5681 5680 5679 5678 5677 5675 5674 5673 5672 5671 5669 5668 5668 5667 5666 5665 5664 5662 5661 5660 5658 5657 5657 5657 5657 5657 5656 5655 5654 5653 5652 5651 5650 5648 5646 5645 5642 5640 5638 5635 5632 5629 5626 5623 5619 5616 5612 5608 5604 5600 5596 5592 5588 5584 5579 5575 5570 5565 5561 5557 5552
5681 5681 5681 5682 5682 5682 5682 5683 5682 5682 5682 5682 5682 5682 5682 5682 5681 5681 5680 5680 5679 5678 5678 5677 5676 5676 5675 5673 5672 5671 5670 5669 5668 5667 5666 5664 5664 5663 5662 5661 5660 5659 5658 5656 5655 5654 5654 5654 5654 5654 5653 5652 5651 5651 5650 5649 5648 5646 5644 5643 5641 5639 5636 5633 5630 5627 5624 5621 5618 5615 5611 5607 5603 5599 5595 5591 5587 5583 5579 5574 5570 5566 5561 5557 5553
5677 5677 5677 5677 5678 5678 5678 5678 5678 5678 5678 5678 5678 5678 5678 5677 5677 5676 5676 5675 5674 5674 5673 5672 5671 5671 5670 5669 5667 5666 5665 5664 5664 5663 5662 5661 5660 5659 5658 5657 5656 5655 5654 5653 5652 5651 5651 5651 5651 5651 5651 5650 5649 5648 5647 5646 5645 5644 5642 5641 5639 5637 5634 5632 5629 5626 5623 5620 5617 5613 5610 5606 5602 5598 5594 5590 5586 5582 5578 5574 5570 5566 5562 5558 5554
5673 5673 5673 5673 5673 5673 5673 5673 5673 5673 5674 5674 5673 5673 5673 5672 5672 5671 5671 5670 5670 5669 5668 5667 5666 5665 5664 5663 5662 5661 5660 5660 5659 5658 5657 5657 5656 5655 5654 5653 5652 5651 5650 5649 5648 5648 5648 5648 5648 5648 5648 5647 5646 5645 5645 5644 5643 5641 5640 5638 5637 5635 5632 5630 5627 5624 5621 5618 5615 5612 5608 5605 5601 5598 5594 5590 5586 5582 5578 5574 5570 5566 5562 5558 5554
5668 5668 5668 5668 5668 5668 5669 5669 5669 5669 5669 5669 5669 5668 5668 5668 5667 5667 5666 5665 5665 5664 5663 5662 5661 5660 5659 5659 5658 5657 5656 5655 5654 5654 5653 5652 5652 5651 5650 5650 5649 5648 5647 5645 5644 5644 5645 5645 5645 5645 5645 5644 5643 5643 5642 5641 5640 5639 5638 5636 5634 5632 5630 5628 5625 5622 5619 5616 5613 5610 5607 5604 5600 5597 5593 5589 5585 5581 5577 5573 5570 5566 5562 5558 5555
5663 5663 5663 5663 5663 5664 5664 5664 5664 5664 5664 5664 5664 5663 5663 5663 5662 5662 5661 5661 5660 5659 5658 5658 5657 5656 5655 5654 5653 5652 5651 5650 5650 5649 5649 5648 5647 5647 5646 5646 5645 5644 5643 5641 5641 5641 5642 5642 5642 5642 5642 5641 5640 5640 5639 5638 5638 5637 5635 5634 5632 5630 5628 5626 5623 5620 5618 5615 5612 5609 5606 5602 5599 5596 5592 5589 5585 5581 5577 5573 5570 5566 5563 5559 5555
5658 5658 5658 5658 5658 5659 5659 5659 5660 5660 5659 5659 5659 5659 5658 5658 5657 5657 5656 5656 5655 5654 5653 5653 5652 5651 5650 5650 5649 5648 5647 5646 5645 5645 5644 5643 5643 5643 5642 5642 5641 5640 5639 5637 5637 5638 5638 5639 5639 5639 5638 5638 5637 5637 5636 5636 5635 5634 5633 5631 5630 5628 5626 5623 5621 5618 5616 5613 5610 5607 5604 5601 5598 5595 5592 5588 5584 5580 5577 5573 5570 5566 5563 5560 5556
5653 5653 5653 5653 5654 5654 5654 5655 5655 5655 5655 5654 5654 5654 5653 5653 5653 5652 5652 5651 5650 5649 5648 5648 5647 5646 5646 5645 5644 5643 5642 5641 5640 5640 5639 5639 5638 5638 5637 5637 5637 5636 5634 5634 5634 5634 5635 5635 5635 5635 5635 5635 5634 5634 5633 5633 5632 5631 5630 5629 5627 5625 5623 5621 5619 5616 5614 5611 5608 5605 5603 5599 5596 5593 5590 5587 5583 5580 5577 5573 5570 5567 5563 5560 5557
5648 5648 5649 5649 5649 5649 5650 5650 5650 5650 5650 5650 5649 5649 5649 5649 5648 5647 5647 5646 5645 5644 5643 5643 5642 5641 5640 5639 5638 5638 5637 5636 5635 5635 5634 5634 5634 5633 5633 5632 5632 5631 5630 5630 5630 5631 5631 5632 5632 5632 5632 5632 5631 5631 5630 5630 5629 5628 5627 5626 5624 5623 5621 5618 5616 5614 5611 5608 5606 5603 5600 5598 5595 5592 5589 5586 5583 5580 5576 5573 5570 5567 5563 5560 5557
5644 5644 5644 5644 5645 5645 5645 5646 5646 5646 5646 5645 5645 5645 5644 5644 5643 5642 5642 5641 5640 5639 5638 5637 5636 5636 5635 5634 5633 5632 5632 5631 5630 5629 5629 5629 5629 5628 5628 5628 5627 5627 5626 5626 5627 5627 5628 5628 5628 5628 5628 5628 5628 5628 5627 5627 5626 5625 5624 5623 5621 5620 5618 5616 5614 5611 5609 5606 5603 5601 5598 5596 5593 5590 5588 5585 5582 5579 5575 5572 5569 5566 5563 5560 5557
5639 5640 5640 5640 5640 5640 5641 5641 5641 5641 5641 5641 5640 5640 5639 5638 5638 5637 5636 5636 5635 5634 5633 5632 5631 5630 5630 5629 5628 5627 5626 5625 5625 5624 5624 5624 5623 5623 5623 5623 5623 5622 5622 5622 5623 5624 5624 5625 5625 5625 5625 5625 5625 5625 5624 5624 5623 5622 5621 5620 5618 5617 5615 5613 5611 5609 5606 5604 5601 5598 5596 5593 5591 5589 5586 5583 5580 5578 5575 5572 5569 5566 5563 5560 5557
5635 5635 5636 5636 5636 5636 5636 5637 5637 5637 5637 5636 5636 5635 5634 5633 5633 5632 5631 5630 5630 5629 5628 5627 5626 5625 5624 5624 5622 5621 5621 5620 5620 5619 5619 5619 5618 5618 5618 5618 5618 5618 5618 5618 5619 5620 5620 5621 5621 5621 5621 5621 5621 5621 5621 5621 5620 5619 5618 5617 5615 5614 5612 5610 5608 5606 5604 5601 5599 5596 5594 5591 5589 5587 5585 5582 5579 5576 5574 5571 5568 5565 5562 5560 5557
5631 5631 5632 5632 5632 5632 5632 5632 5632 5632 5632 5631 5630 5630 5629 5628 5627 5627 5626 5625 5625 5624 5623 5622 5621 5620 5619 5618 5617 5616 5616 5615 5614 5614 5613 5613 5613 5613 5613 5613 5613 5613 5613 5614 5615 5616 5616 5617 5617 5617 5617 5617 5618 5617 5617 5617 5616 5616 5615 5614 5612 5611 5609 5607 5605 5603 5601 5598 5596 5594 5592 5589 5586 5584 5583 5580 5578 5575 5572 5570 5567 5564 5562 5559 5557
5626 5627 5627 5627 5627 5627 5627 5627 5627 5627 5626 5626 5625 5625 5623 5622 5622 5621 5621 5620 5619 5618 5618 5617 5616 5615 5614 5613 5613 5612 5610 5609 5609 5608 5607 5607 5608 5608 5608 5608 5608 5608 5609 5610 5611 5612 5612 5613 5613 5614 5614 5614 5614 5614 5613 5613 5613 5612 5611 5610 5609 5607 5606 5604 5602 5599 5597 5595 5594 5591 5589 5587 5584 5582 5580 5578 5576 5573 5571 5568 5566 5563 5560 5558 5556
5621 5621 5622 5622 5622 5622 5622 5622 5621 5621 5621 5621 5620 5619 5618 5617 5616 5615 5615 5614 5613 5612 5612 5611 5610 5609 5609 5608 5607 5606 5605 5605 5604 5603 5603 5603 5602 5603 5603 5603 5603 5603 5604 5605 5607 5607 5608 5609 5609 5610 5610 5610 5610 5609 5609 5609 5609 5608 5607 5606 5605 5603 5602 5600 5598 5596 5594 5592 5591 5589 5587 5584 5581 5579 5577 5576 5574 5571 5569 5567 5564 5562 5559 5557 5554
5616 5616 5616 5616 5616 5617 5617 5616 5616 5616 5615 5615 5614 5613 5612 5611 5611 5609 5608 5607 5607 5606 5606 5605 5605 5604 5604 5603 5602 5601 5601 5600 5599 5599 5598 5598 5598 5598 5598 5598 5598 5599 5600 5601 5602 5603 5604 5605 5605 5606 5606 5606 5605 5605 5605 5605 5605 5604 5603 5602 5601 5599 5598 5596 5594 5592 5591 5589 5587 5586 5584 5581 5579 5577 5575 5573 5571 5569 5567 5564 5562 5560 5557 5555 5553
5611 5611 5611 5611 5611 5611 5611 5611 5610 5609 5609 5608 5608 5607 5606 5606 5605 5604 5602 5601 5601 5600 5600 5600 5599 5599 5599 5598 5597 5597 5596 5595 5595 5595 5594 5594 5594 5593 5593 5594 5594 5595 5596 5597 5598 5599 5600 5601 5601 5601 5602 5601 5601 5601 5601 5601 5600 5600 5599 5598 5596 5595 5594 5592 5590 5589 5587 5586 5584 5582 5580 5578 5576 5574 5572 5570 5568 5566 5564 5562 5560 5557 5555 5553 5551
5606 5606 5605 5605 5606 5606 5605 5605 5604 5603 5603 5603 5602 5601 5601 5600 5599 5598 5597 5596 5595 5595 5594 5594 5594 5594 5594 5593 5593 5592 5592 5591 5591 5590 5589 5589 5589 5589 5589 5589 5590 5590 5591 5593 5594 5595 5596 5597 5597 5597 5598 5597 5597 5597 5597 5596 5596 5595 5594 5593 5592 5591 5589 5588 5586 5584 5583 5582 5580 5579 5577 5575 5573 5571 5569 5567 5565 5563 5561 5559 5557 5555 5553 5551 5549
5601 5600 5600 5600 5600 5600 5600 5600 5599 5599 5598 5598 5597 5597 5596 5595 5594 5593 5592 5590 5590 5589 5589 5589 5589 5589 5589 5589 5588 5588 5587 5587 5586 5586 5585 5585 5585 5585 5585 5585 5586 5586 5587 5589 5590 5591 5592 5592 5593 5593 5593 5593 5593 5593 5592 5592 5591 5591 5589 5588 5587 5586 5585 5583 5582 5580 5579 5577 5576 5575 5573 5571 5569 5567 5565 5563 5561 5560 5558 5556 5554 5552 5550 5548 5547
5595 5595 5596 5596 5596 5596 5595 5595 5595 5595 5594 5594 5593 5592 5591 5590 5588 5587 5586 5585 5585 5585 5585 5585 5585 5585 5585 5584 5584 5583 5583 5582 5582 5582 5581 5581 5581 5581 5581 5581 5582 5582 5583 5584 5585 5586 5587 5588 5589 5589 5589 5589 5588 5588 5588 5587 5587 5586 5584 5583 5582 5581 5580 5579 5577 5576 5574 5573 5572 5570 5569 5567 5565 5563 5562 5560 5558 5556 5554 5552 5550 5549 5547 5545 5544
5591 5591 5591 5591 5591 5591 5591 5591 5591 5590 5590 5589 5588 5588 5586 5585 5584 5583 5582 5581 5580 5580 5580 5580 5580 5580 5580 5580 5580 5579 5579 5578 5578 5577 5577 5577 5577 5577 5577 5577 5578 5579 5579 5580 5581 5582 5583 5583 5584 5584 5584 5584 5584 5583 5583 5582 5581 5580 5579 5579 5578 5577 5576 5574 5573 5571 5570 5569 5567 5566 5564 5563 5561 5559 5558 5556 5554 5552 5551 5549 5547 5545 5543 5542 5540